Location: Bagneux
(48.7956°N, 2.3080°E)
Time: 18:55:02
(UTC+00:00)

Daily predictions for brighter satellites

Satellite Brightness Start Highest point End
(mag) Time Altitude Azimuth Time Altitude Azimuth Time Altitude Azimuth
Cosmos 1110 Rocket 4.2 16:23:16 10° NNW 16:28:28 80° WSW 16:33:40 10° SSE
Cosmos 2333 Rocket 2.9 16:24:51 10° S 16:30:01 36° ESE 16:35:15 10° NE
Meteor 1-11 Rocket 4.5 16:24:48 10° N 16:30:11 33° ENE 16:35:31 10° SE
Cosmos 1933 4.4 16:29:59 10° SSW 16:33:52 46° WNW 16:37:46 10° N
SJ-7 4.5 16:29:51 10° SSE 16:34:00 65° ENE 16:38:09 10° N
Shenzhou-11 Module 4.2 16:34:50 10° SSW 16:36:38 16° SSE 16:38:27 10° ESE
RESURS DK-1 3.7 16:34:24 10° SSE 16:37:43 23° ESE 16:41:01 10° NE
Radarsat Rocket 4.1 16:32:49 10° SSE 16:39:05 86° WSW 16:44:58 10° NNW
ISS -3.7 16:36:42 10° WNW 16:40:02 65° NNE 16:43:24 10° E
Cosmos 2237 Rocket 3.7 16:36:30 10° SE 16:40:06 17° E 16:43:42 10° ENE
ATLAS 3B R/B 2.9 16:33:39 10° NW 16:40:22 79° SW 16:47:14 10° SSE
USA 267 3.6 16:34:23 10° SE 16:40:55 72° SW 16:47:29 10° WNW
NOSS 3-4 (A) 3.5 16:35:26 10° SSW 16:41:24 72° SE 16:47:47 10° NE
NOSS 3-4 (C) 3.5 16:35:32 10° SSW 16:41:30 71° SE 16:47:54 10° NE
Cosmos 2322 Rocket 3.3 16:38:27 10° WSW 16:43:45 42° NW 16:49:07 10° NNE
CZ-4B R/B 2.9 16:42:29 10° N 16:45:49 39° WNW 16:49:05 10° SW
Cosmos 1812 4.0 16:42:52 10° SE 16:45:51 22° E 16:48:51 10° NE
Cosmos 1844 4.1 16:41:31 10° NNW 16:47:12 70° WSW 16:52:48 10° SSE
YAOGAN 1 4.2 16:46:51 10° E 16:49:14 15° ENE 16:51:36 10° NNE
COBE Rocket 4.4 16:45:28 10° NNE 16:49:46 36° E 16:54:04 10° SSE
SL-16 R/B 3.6 16:44:44 10° WSW 16:49:53 35° NW 16:55:04 10° NNE
Iridium 82 4.4 16:48:31 10° S 16:52:03 85° E 16:55:37 10° N
Feng Yun 1-1 Rocket 4.1 16:48:58 10° SSE 16:54:18 67° ENE 16:59:40 10° N
Cosmos 2219 Rocket 2.4 16:51:22 10° S 16:56:49 55° ESE 17:02:20 10° NE
NOAA 12 4.4 16:52:03 10° SE 16:57:05 45° ENE 17:02:06 10° N
BREEZE-M R/B 3.2 16:51:35 10° WSW 16:58:22 89° S 17:01:16 15° ENE
CORIOLIS 4.2 16:54:46 10° SSE 17:00:07 62° ENE 17:05:31 10° N
Cosmos 1844 Rocket 4.0 16:56:21 10° NW 17:01:39 45° WSW 17:06:54 10° S
Cosmos 1733 Rocket 3.2 16:57:33 10° N 17:01:50 51° ENE 17:06:06 10° SSE
Cosmos 494 Rocket 4.3 16:56:37 10° SSW 17:01:52 70° WNW 17:07:09 10° NNE
Cosmos 1536 3.6 17:00:21 10° N 17:03:57 30° ENE 17:07:30 10° SE
PSLV R/B 3.9 17:01:08 10° NNE 17:05:20 80° ESE 17:09:29 10° SSW
SMAP 3.0 17:02:26 10° SSE 17:07:05 80° ENE 17:11:47 10° NNW
Cosmos 1269 Rocket 4.2 17:01:57 10° SSW 17:07:16 76° WNW 17:12:36 10° NNE
Cosmos 1500 3.3 17:03:41 10° N 17:07:21 47° ENE 17:10:59 10° SSE
Cosmos 1340 3.8 17:05:16 10° NNW 17:08:55 47° W 17:12:32 10° S
CZ-4 R/B 2.4 17:07:57 10° ESE 17:11:05 24° ENE 17:14:13 10° NNE
Cosmos 1943 Rocket 3.8 17:12:09 10° N 17:15:14 15° NNE 17:16:12 14° NE
H-2A R/B 2.6 17:11:41 10° SSE 17:15:23 87° ENE 17:19:05 10° NNW
ATLAS 2AS CENTAUR R/B 3.4 17:11:21 10° WSW 17:19:18 64° NW 17:26:45 12° NE
Cosmos 304 Rocket 4.4 17:14:49 10° NNW 17:19:34 61° WSW 17:24:18 10° S
Lacrosse 5 rocket 2.1 17:15:42 10° SSW 17:19:41 38° SE 17:21:46 22° E
COSMOS 2428 2.7 17:16:41 10° SSW 17:22:21 82° ESE 17:27:49 11° NNE
CSL-04 Rocket 4.2 17:18:06 10° SE 17:22:46 33° ENE 17:27:28 10° N
YAOGAN 6 3.1 17:20:13 10° SE 17:23:26 34° ENE 17:26:43 10° N
Meteor 1-5 Rocket 4.2 17:18:53 10° NNW 17:24:32 88° W 17:29:57 10° S
SKYMED 2 4.3 17:23:37 19° NE 17:25:54 31° E 17:29:46 10° SSE
SL-4 R/B 1.9 17:25:20 10° WSW 17:29:05 74° SSE 17:31:03 28° ENE
Cosmos 292 Rocket 4.2 17:24:56 10° N 17:29:32 40° ENE 17:34:07 10° SE
Okean O Rocket 4.2 17:27:40 10° SW 17:31:07 23° W 17:34:35 10° NW
SeaSat 1 3.8 17:31:15 19° NE 17:31:28 20° NE 17:34:57 10° N
Cosmos 2251 Rocket 3.6 17:27:03 10° S 17:32:14 56° ESE 17:36:13 17° NNE
Cosmos 1092 Rocket 4.3 17:26:58 10° SSE 17:32:53 44° E 17:38:47 10° NNE
NOSS 0 Rocket 4.1 17:26:56 10° S 17:32:56 55° ESE 17:37:30 18° NE
CSL-04 Debris 4.5 17:29:53 10° SE 17:34:59 42° ENE 17:40:05 10° N
ATLAS 5 CENTAUR R/B 1.8 17:34:10 10° SSW 17:35:55 28° SSE 17:35:55 28° SSE
Cosmos 2242 Rocket 3.8 17:32:19 10° SSE 17:36:42 49° E 17:40:14 15° NNE
Cosmos 921 Rocket 4.1 17:33:39 10° N 17:36:26 24° NE 17:36:26 24° NE
FengYun 1-2 T 4.1 17:33:42 10° SSE 17:39:07 64° ENE 17:44:34 10° N
Cosmos 1862 Rocket 3.4 17:35:16 10° S 17:39:35 80° E 17:44:00 10° NNE
COSMOS 2455 4.5 17:34:48 10° W 17:39:46 26° NNW 17:44:46 10° NNE
Cosmos 1703 Rocket 4.2 17:38:13 10° SSE 17:42:13 33° E 17:42:45 32° ENE
Okean-O 2.7 17:39:00 10° S 17:43:26 79° WSW 17:47:54 10° NNW
Genesis I 4.0 17:41:38 10° NNW 17:45:01 31° NE 17:45:01 31° NE
USA 215 3.6 17:44:09 22° NE 17:48:24 56° NNW 17:54:45 10° W
Cosmos 1666 2.5 17:48:25 10° N 17:52:10 64° E 17:55:51 10° SSE
NOAA 11 4.4 17:49:13 10° SE 17:54:23 45° ENE 17:59:35 10° N
Envisat 3.2 17:50:04 10° S 17:55:08 74° WSW 18:00:15 10° NNW
Cosmos 2278 Rocket 2.5 17:49:41 10° NNW 17:55:19 67° WSW 18:00:55 10° SSE
STARLINK-67 3.7 17:55:01 10° W 17:57:16 37° NW 17:57:16 37° NW
Cosmos 1867 4.3 17:54:55 10° NNW 17:59:53 34° NE 18:00:20 33° NE
Cosmos 2360 Rocket 4.1 17:59:13 10° W 18:03:47 24° NW 18:08:23 10° N
BREEZE-M DEB (TANK) 2.3 17:59:36 10° W 18:03:52 55° S 18:04:17 49° SSE
Cosmos 2369 Rocket 3.6 18:05:57 10° N 18:09:07 22° NNE 18:09:07 22° NNE
SL-16 R/B 3.0 18:05:47 10° SSE 18:09:56 32° SE 18:09:56 32° SE
Shenzhou-11 Module 4.0 18:09:04 10° WSW 18:10:38 20° SSW 18:10:38 20° SSW
Cosmos 1908 Rocket 3.7 18:08:32 10° NNW 18:12:59 75° W 18:17:20 10° S
Nadezhda 4 Rocket 4.4 18:07:10 10° SSW 18:13:28 66° WNW 18:19:47 10° N
COSMO-SKYMED 1 2.5 18:12:08 33° NNE 18:14:04 88° W 18:18:24 10° SSW
Cosmos 2333 Rocket 3.2 18:08:43 10° SW 18:14:12 45° NW 18:18:31 16° NNE
STARLINK-46 4.5 18:12:30 10° WSW 18:14:04 30° WSW 18:14:04 30° WSW
RESURS DK-1 3.4 18:11:36 10° SW 18:15:31 41° NW 18:17:10 28° N
Cosmos 1553 Rocket 4.1 18:09:57 10° N 18:16:09 51° ENE 18:22:21 10° SSE
ISS -2.5 18:13:33 10° WNW 18:16:41 36° SSW 18:17:00 35° SSW
Cosmos 1428 Rocket 4.4 18:13:43 10° S 18:19:45 61° E 18:23:49 22° NNE
Cosmos 1812 4.4 18:17:57 10° SW 18:21:27 33° WNW 18:24:36 12° N
Meteor 1-27 Rocket 4.4 18:15:50 10° SSW 18:21:28 56° WNW 18:27:14 10° N
Cosmos 2237 Rocket 2.2 18:17:42 10° SSW 18:23:25 84° WNW 18:25:48 37° NNE
YAOGAN 1 2.6 18:20:26 10° S 18:24:45 78° WSW 18:29:07 10° NNW
USA 116 4.3 18:24:33 36° NNE 18:26:51 81° ESE 18:32:05 10° SSW
BREEZE-M DEB (TANK) 3.4 18:23:53 10° W 18:27:30 30° SW 18:27:30 30° SW
USA 229 DEB 4.4 18:22:18 10° NW 18:28:49 37° NNE 18:29:29 36° NE
USA 229 4.4 18:22:25 10° NW 18:28:55 37° NNE 18:29:34 36° NE
Cosmos 2026 Rocket 3.8 18:30:01 10° S 18:36:05 89° ESE 18:40:54 17° N
Ariane Rocket 4.2 18:40:38 30° N 18:40:38 30° N 18:43:13 10° N
Cosmos 489 Rocket 4.5 18:32:36 10° NNW 18:38:49 60° ENE 18:38:49 60° ENE
Cosmos 2219 Rocket 3.7 18:36:08 10° WSW 18:41:05 31° NW 18:44:27 18° N
Okean 1-7 3.6 18:38:55 10° SSW 18:42:13 51° SSW 18:42:13 51° SSW
Meteor 1-18 Rocket 4.3 18:39:44 10° S 18:44:37 62° SSE 18:44:37 62° SSE
CZ-4 R/B 2.9 18:42:24 10° SSW 18:45:59 34° W 18:49:33 10° NNW
Cosmos 1417 Rocket 4.3 18:40:48 10° N 18:46:58 79° E 18:48:46 48° SSE
Cosmos 1980 4.4 18:48:24 10° SW 18:53:52 50° NW 18:55:38 37° N
Cosmos 2297 3.9 18:50:01 10° NNW 18:55:44 70° WSW 18:56:47 57° S
Lacrosse 5 rocket 2.9 18:54:45 10° WSW 18:57:26 33° W 18:57:26 33° W
Cosmos 1943 Rocket 3.4 18:54:50 10° NNW 18:57:45 30° N 18:57:45 30° N
SeaSat 1 4.0 19:11:03 28° NNW 19:11:03 28° NNW 19:13:21 10° NNW
SL-4 R/B 4.1 19:04:58 10° W 19:06:40 24° WNW 19:06:40 24° WNW
ATLAS 2AS CENTAUR R/B 4.2 19:04:51 10° WNW 19:11:50 31° NNW 19:14:11 27° NNE
USA 215 4.0 19:31:30 42° NNW 19:31:30 42° NNW 19:36:54 10° WNW
SL-16 R/B 4.0 19:49:17 10° SW 19:51:52 26° WSW 19:51:52 26° WSW
Cosmos 2369 Rocket 4.3 19:49:29 10° NNW 19:50:56 18° NNW 19:50:56 18° NNW
Cosmos 2237 Rocket 4.4 20:04:09 10° W 20:07:40 20° NW 20:07:40 20° NW
Cosmos 2344 4.3 20:00:32 10° NW 20:09:11 79° NNW 20:09:11 79° NNW
